PAMPLONA/NOAIN current weather conditions

sailwx.info

Air temperature 3.0° C
Visibility: greater than 5.4 NM
Dewpoint -0.0° C

Last reported at 2017-Feb-25 07:30 UTC.
Time now 2017-Feb-25 09:12 UTC

Location: N 42°46' W 001°38'.
View on Google Maps.

See reports from other nearby stations

  
Tides and Currents Weather Stations Pressure Air Temp Water Temp Dewpoint Dewpoint Depression Visibility Wind Speed Wind Dir Waves Ship Positions
date/time (UTC)wind fromknots sea level pressurealtimeterstation pressurevisibilityair tempwater tempwave heightnotes
2017-Feb-25 08:30 5.4 6.0
2017-Feb-25 08:00 300 5 5.4 4.0
2017-Feb-25 07:30 5.4 3.0
2017-Feb-25 07:00 290 4 5.4 3.0
2017-Feb-25 06:30 220 2 5.4 1.0
2017-Feb-25 06:01 180 1 5.4 2.0
2017-Feb-25 06:00 5.4 3.0
2017-Feb-25 05:30 5.4 3.0
2017-Feb-25 05:00 5.4 2.0
2017-Feb-25 04:30 320 2 5.4 2.0
2017-Feb-25 04:00 310 4 5.4 3.0
2017-Feb-25 03:30 5.4 3.0
2017-Feb-25 03:00 320 6 5.4 3.0
2017-Feb-25 02:30 330 8 5.4 4.0
2017-Feb-25 02:00 330 9 5.4 4.0
2017-Feb-25 01:30 330 12 5.4 4.0
2017-Feb-25 01:00 330 13 5.4 4.0
2017-Feb-25 00:30 330 9 5.4 4.0
2017-Feb-25 00:00 330 9 5.4 4.0
2017-Feb-24 23:30 350 2 5.4 4.0
2017-Feb-24 23:00 360 2 5.4 4.0
2017-Feb-24 22:30 320 6 5.4 4.0
2017-Feb-24 22:00 320 5 5.4 5.0
2017-Feb-24 21:30 320 7 5.4 5.0
2017-Feb-24 21:00 330 8 5.4 5.0
2017-Feb-24 20:30 340 13 5.4 6.0
2017-Feb-24 20:00 340 12 5.4 6.0
2017-Feb-24 19:30 360 11 5.4 6.0
2017-Feb-24 19:00 350 13 5.4 6.0
2017-Feb-24 18:30 350 13 5.4 6.0
2017-Feb-24 18:00 360 11 5.4 7.0
2017-Feb-24 17:30 360 13 5.4 7.0
2017-Feb-24 17:00 330 18 5.4 8.0
2017-Feb-24 16:30 350 14 5.4 8.0
2017-Feb-24 16:00 350 18 5.4 9.0
2017-Feb-24 15:30 340 18 5.4 9.0
2017-Feb-24 15:00 350 19 5.4 9.0
2017-Feb-24 14:30 360 15 5.4 9.0
2017-Feb-24 14:00 350 18 5.4 9.0
2017-Feb-24 13:30 350 18 5.4 9.0
2017-Feb-24 13:00 340 21 5.4 9.0
2017-Feb-24 12:30 340 15 5.4 9.0
2017-Feb-24 12:00 340 15 5.4 9.0
2017-Feb-24 11:30 350 18 gusting 28 5.4 9.0
2017-Feb-24 11:00 340 13 5.4 9.0
2017-Feb-24 10:30 330 14 5.4 9.0
2017-Feb-24 10:00 340 12 5.4 9.0
2017-Feb-24 09:30 340 13 5.4 8.0
2017-Feb-24 09:00 310 8 5.4 7.0
2017-Feb-24 08:30 320 11 5.4 7.0
2017-Feb-24 08:00 320 11 5.4 7.0
2017-Feb-24 07:30 340 13 5.4 7.0
2017-Feb-24 07:00 330 11 gusting 21 5.4 8.0
2017-Feb-24 06:30 330 14 5.4 8.0
2017-Feb-24 06:00 330 13 5.4 9.0
2017-Feb-24 05:30 310 7 5.4 9.0
2017-Feb-24 05:00 320 12 5.4 9.0
2017-Feb-24 04:30 320 6 5.4 9.0
2017-Feb-24 04:00 310 6 5.4 9.0
2017-Feb-24 03:30 310 4 5.4 9.0
2017-Feb-24 03:00 300 2 5.4 8.0
2017-Feb-24 02:30 320 5 5.4 9.0
2017-Feb-24 02:00 320 6 5.4 9.0
2017-Feb-24 01:30 340 6 5.4 9.0
2017-Feb-24 01:00 330 4 5.4 9.0
2017-Feb-24 00:30 320 5 5.4 9.0
2017-Feb-24 00:00 340 11 5.4 9.0
2017-Feb-23 23:30 350 7 5.4 9.0
2017-Feb-23 23:00 350 8 5.4 9.0
2017-Feb-23 22:30 340 13 5.4 9.0
2017-Feb-23 22:00 350 11 5.4 9.0
2017-Feb-23 21:30 330 13 5.4 9.0
2017-Feb-23 21:00 340 7 4.3 9.0
2017-Feb-23 20:30 330 12 3.8 9.0
2017-Feb-23 20:00 340 7 3.2 9.0
2017-Feb-23 19:30 320 6 3.210.0
2017-Feb-23 19:00 320 6 3.210.0
2017-Feb-23 18:30 320 8 3.811.0
2017-Feb-23 18:00 310 2 4.312.0
2017-Feb-23 17:30 5.413.0
2017-Feb-23 17:00 140 0 5.413.0
2017-Feb-23 16:30 140 1 5.414.0
2017-Feb-23 16:00 170 1 5.414.0
2017-Feb-23 15:30 5.415.0
2017-Feb-23 15:00 5.414.0
2017-Feb-23 14:30 5.415.0
2017-Feb-23 14:00 5.414.0
2017-Feb-23 13:30 5.415.0
2017-Feb-23 13:00 5.414.0
2017-Feb-23 12:30 5.414.0
2017-Feb-23 12:00 5.413.0
2017-Feb-23 11:30 4.911.0
2017-Feb-23 11:00 220 0 4.910.0
2017-Feb-23 10:30 3.8 9.0
2017-Feb-23 10:00 3.8 8.0
2017-Feb-23 09:30 3.2 7.0
2017-Feb-23 09:00 140 4 3.2 6.0